sat.trackr.live / text

‹ back to catalog

STARLINK-30102

NORAD 57434 · 2023-105E

PAYLOAD ACTIVE UNKNOWN

§ Identity

Operator
Country
US
Launch date
2023-07-24
Launch site
AFETR
Launch vehicle
Mass (kg)
RCS (m²)

Purposes: comms

External: N2YO · Heavens-Above · Gunter

§ Orbital elements

Epoch: 2026-05-25T03:24:44.563680Z

Period
94.27 min
Inclination
43.0006°
Eccentricity
0.0001291
Mean motion
15.27569774 rev/d
Perigee alt
482.2 km
Apogee alt
484.0 km
Semi-major
6,861.2 km
B*
-1.7017e-5
RAAN
188.1389°
Arg perigee
270.0678°
Mean anomaly
90.0026°
Rev number
15,722

§ Raw data

STARLINK-301021 57434U 23105E   26145.14218245 -.00000730  00000+0 -17017-4 0  99902 57434  43.0006 188.1389 0001291 270.0678  90.0026 15.27569774157226

JSON: /api/v1/satellites/57434 · /tle

For live sub-satellite position, see the globe view (requires WebGL).

§ Visibility from observer

Set your observer location to see the next 7 days of passes ≥ 10°. The values pass through the URL so the page stays shareable.

No JS? Fill the form by hand. The geolocation button needs JavaScript.